Location: Newark
(22.3060°N, 114.2134°E)
Time: 02:46:28
(UTC+00:00)

Transit 2A - Visible Passes

Search period start: 06 August 2021 00:00
Search period end: 16 August 2021 00:00
Orbit: 598 x 961 km, 66.7° (Epoch: 05 August)

Date Brightness Start Highest point End Pass type
(mag) Time Alt. Az. Time Alt. Az. Time Alt. Az.
06 Aug 5.9 20:47:56 28° WSW 20:49:42 44° WNW 20:53:56 10° N visible
07 Aug 5.3 20:15:13 75° WSW 20:15:31 81° WNW 20:19:56 10° NNE visible
08 Aug 6.6 19:42:26 43° ENE 19:42:26 43° ENE 19:45:42 10° NNE visible
09 Aug 8.1 19:09:36 19° ENE 19:09:36 19° ENE 19:11:09 10° NE visible
09 Aug 7.5 20:50:07 14° WNW 20:50:25 14° WNW 20:52:44 10° NNW visible
10 Aug 7.2 20:17:13 21° NW 20:17:13 21° NW 20:19:40 10° N visible
11 Aug 7.5 19:44:15 21° N 19:44:15 21° N 19:46:01 10° N visible
12 Aug 8.3 19:11:15 15° NNE 19:11:15 15° NNE 19:12:05 10° NNE visible
